Overview Statistics Trail Chart Weather Telemetry Raw packets
 

This is the latest recevied weather packets stored in our database for station/object CE3TDM-10. If no packets are shown the sender has not sent any weather packets the latest 10 day(s).

<< 2 3 4 5 6 7 8 >>
Time Temp. Humidity Pressure Rain* Wind** Luminosity Snow
1788513435 23.89° C 34% 924.3 hPa - - - -
1788511634 23.89° C 34% 924.3 hPa - - - -
1788509835 23.89° C 34% 924.3 hPa - - - -
1788508034 23.89° C 34% 924.3 hPa - - - -
1788506234 24.44° C 33% 924.6 hPa - - - -
1788504436 26.11° C 31% 924.8 hPa - - - -
1788503534 26.67° C 32% 925 hPa - - - -
1788502634 26.67° C 31% 925.2 hPa - - - -
1788500834 27.22° C 30% 925.4 hPa - - - -
1788499033 28.33° C 30% 925.4 hPa - - - -
1788497233 28.89° C 29% 925.7 hPa - - - -
1788496333 29.44° C 29% 925.8 hPa - - - -
1788495433 30.56° C 28% 925.7 hPa - - - -
1788494533 31.11° C 28% 925.8 hPa - - - -
1788493633 31.67° C 27% 925.7 hPa - - - -
1788490933 32.78° C 27% 926 hPa - - - -
1788490032 32.78° C 28% 925.8 hPa - - - -
1788489132 32.78° C 28% 925.8 hPa - - - -
1788486434 31.11° C 32% 925.8 hPa - - - -
1788484632 23.89° C 36% 925.7 hPa - - - -
1788483740 23.89° C 36% 925.7 hPa - - - -
1788482832 23.89° C 36% 925.7 hPa - - - -
1788481934 23.89° C 36% 925.6 hPa - - - -
1788481032 23.89° C 35% 925.5 hPa - - - -
1788479232 24.44° C 35% 925.4 hPa - - - -

* Rain since midnight (hover to see other rain measurements)
** Current wind speed in m/s (hover to see current wind gust speed)